[[{"header":{"parameterUnit":"m.s-1","parameterCategory":1,"la1":30.2991,"la2":30.254,"lo1":-89.0895,"lo2":-89.0444,"dy":0.0017,"dx":0.0017,"nx":28,"ny":28,"refTime":"2025-04-08T21:00:00:Z","depth":0,"parameterNumber":2,"parameterNumberName":"U-component_of_WINDS"},"data":[0,0,0,0,0,0,0,0,0,0,0,0,0,0,0,0,0,0,0,0,0,0,0,0,0,0,0,0,0,0,0,0,0,0,0,0,0,0,0,0,0,0,0,0,0,0,0,0,0,0,0,0,0,0,0,0,0,0,3.183,3.183,0,3.19,3.19,3.1901,3.1888,3.1887,3.1886,3.1885,3.196,3.1963,3.1966,0,0,0,0,0,0,0,0,0,0,0,0,0,3.1688,3.169,3.183,3.183,3.1831,3.19,3.19,3.1901,3.1889,3.1887,3.1885,3.1884,3.1959,3.1962,3.1966,0,0,0,0,0,0,0,0,0,0,0,0,0,3.1753,3.1691,3.1829,3.1833,3.1834,3.1899,3.1901,3.1902,3.1889,3.1887,3.1885,3.1883,3.1957,3.1962,3.1967,3.2034,0,0,3.1981,3.1983,0,0,0,0,0,0,0,0,3.1749,3.1758,3.1832,3.1833,3.1834,3.1883,3.1878,3.1946,3.1889,3.1868,3.1885,3.1882,3.1936,3.1942,3.196,3.2037,3.2041,3.1982,3.1985,3.1987,3.1988,0,0,0,0,0,0,0,3.1745,3.1755,3.1857,3.1833,3.1834,3.1832,3.1839,3.1891,3.1912,3.187,3.1869,3.1877,3.1936,3.1955,3.1962,3.2042,3.1982,3.1986,3.1989,3.1991,3.2178,3.218,0,0,0,0,0,0,3.1739,3.1751,3.1855,3.1859,3.1786,3.1836,3.1844,3.1869,3.1911,3.1916,3.1879,3.1877,3.1948,3.1956,3.1964,3.2045,3.1987,3.1991,3.1994,3.2176,3.2179,3.2181,0,0,0,0,0,0,3.1736,3.1748,3.1852,3.1805,3.1818,3.1841,3.1869,3.1872,3.1891,3.1918,3.1922,3.1894,3.1947,3.1957,3.2016,3.2048,3.1993,3.1998,3.2173,3.2177,3.218,3.2208,0,0,0,0,0,0,3.1732,3.1747,3.1772,3.1806,3.1821,3.1903,3.1871,3.1875,3.1898,3.1896,3.1933,3.1938,3.1946,3.2009,3.2021,3.2053,3.2001,3.2171,3.2175,3.2179,3.2205,3.2212,3.2219,0,0,0,0,0,3.1727,3.1778,3.1773,3.1786,3.1852,3.1904,3.1913,3.1921,3.1901,3.1927,3.1944,3.1937,3.2042,3.2016,3.2029,3.2063,3.2169,3.2174,3.2178,3.2202,3.2211,3.2218,0,0,0,0,0,0,3.1749,3.1783,3.1778,3.1841,3.187,3.1902,3.1935,3.193,3.1966,3.1962,3.1971,3.198,3.204,3.2057,3.2027,3.213,3.2103,3.2111,3.2116,3.2125,3.2132,3.2126,3.2005,0,0,0,0,0,3.176,3.1799,3.1827,3.1881,3.1895,3.1913,3.1936,3.1939,3.1969,3.1982,3.2004,3.2034,3.2074,3.2101,3.2139,3.2207,3.2215,3.2237,3.2244,3.225,3.2256,3.2293,3.2304,3.2197,3.2196,3.2196,0,0,3.1786,3.181,3.1834,3.1886,3.1908,3.1949,3.1923,3.1967,3.1997,3.1989,3.2045,3.2063,3.2098,3.2161,3.219,3.2178,3.2287,3.2256,3.226,3.2264,3.2299,3.231,3.2319,3.22,3.2199,3.2199,0,0,3.1854,3.1875,3.1922,3.1945,3.1979,3.199,3.2001,3.2034,3.2045,3.2102,3.2096,3.2133,3.2202,3.2227,3.2248,3.2325,3.2319,3.2337,3.2374,3.241,3.2418,3.2426,3.2453,3.2463,3.2344,3.2344,3.2344,0,3.1882,3.1941,3.1947,3.1991,3.2015,3.2008,3.2056,3.2078,3.2123,3.214,3.2125,3.2211,3.2234,3.2303,3.2322,3.234,3.2353,3.2333,3.2416,3.2424,3.2431,3.2457,3.2468,3.2346,3.2346,3.2346,3.2345,0,3.1974,3.2016,3.205,3.2092,3.2119,3.2165,3.2179,3.2206,3.2207,3.222,3.2278,3.2305,3.2349,3.2366,3.2368,3.2436,3.2427,3.2414,3.2387,3.2443,3.2468,3.2478,3.2349,3.2348,3.2347,3.2347,0,0,3.2058,3.2102,3.2115,3.2134,3.2171,3.2203,3.2249,3.2291,3.2314,3.2346,3.2385,3.2443,3.2431,3.2456,3.246,3.2492,3.2551,3.2476,3.2477,3.2489,3.2628,3.2637,3.2649,3.2547,3.2549,3.2551,3.2625,0,3.2129,3.2208,3.2215,3.2287,3.2326,3.2319,3.236,3.2387,3.24,3.2436,3.2451,3.2492,3.2473,3.2488,3.2519,3.2537,3.2579,3.2532,3.2585,3.2586,3.2576,3.2661,3.2672,3.274,3.2635,3.2636,3.2637,0,3.2222,3.2255,3.2331,3.2362,3.2378,3.2414,3.2452,3.2486,3.2517,3.2525,3.2552,3.2552,3.2601,3.2572,3.2638,3.2606,3.2628,3.264,3.2643,3.2648,3.2615,3.2669,3.2762,3.2772,3.2653,3.2651,3.265,0,3.2275,3.2339,3.2392,3.2409,3.2446,3.2472,3.2489,3.2518,3.2543,3.2577,3.2593,3.2632,3.2654,3.2685,3.2696,3.2674,3.2763,3.2735,3.2771,3.2771,3.279,3.2789,3.2888,3.2804,3.2804,3.2804,3.2803,0,3.2354,3.24,3.2416,3.2449,3.2502,3.2509,3.2561,3.2577,3.2603,3.2639,3.2637,3.2671,3.2684,3.2721,3.273,3.2783,3.2794,3.2801,3.2803,3.2802,3.2801,3.2816,3.2812,3.2806,3.2806,3.2805,3.2805,0,3.2422,3.2435,3.2493,3.2523,3.2532,3.2569,3.2596,3.2628,3.264,3.2687,3.2698,3.2718,3.2761,3.2775,3.2828,3.2834,3.2897,3.2895,3.2886,3.2886,3.2921,3.2918,3.3034,3.305,3.2956,3.2957,3.2958,0,3.2471,3.2507,3.2541,3.2565,3.2582,3.2621,3.2645,3.2654,3.268,3.2718,3.2746,3.2788,3.2822,3.2892,3.2912,3.2952,3.2951,3.2989,3.2957,3.2954,3.2951,3.2949,3.2953,3.2995,3.2996,3.2997,3.2997,0,3.2557,3.2562,3.2597,3.2634,3.2663,3.2693,3.2723,3.2742,3.2756,3.2785,3.2828,3.2855,3.2908,3.295,3.2991,3.301,3.3006,3.3007,3.3017,3.3016,3.3009,3.3013,3.2902,3.3004,3.3004,3.3003,3.3003,3.3002,3.2618,3.2649,3.2677,3.2717,3.2739,3.2766,3.2798,3.2814,3.285,3.2893,3.2896,3.2943,3.2974,3.3028,3.3048,3.3086,3.3075,3.309,3.3094,3.3098,3.31,3.3003,3.3093,3.3093,3.3093,3.3093,3.3093,0,3.2703,3.2721,3.2757,3.2797,3.2828,3.2821,3.2853,3.2879,3.292,3.2948,3.2982,3.3032,3.3073,3.3096,3.3137,3.3162,3.3162,3.3173,3.3171,3.3175,3.3108,3.3094,3.3173,3.3173,3.3173,3.3173,3.3173,3.3172,3.2752,3.2804,3.2812,3.2875,3.2893,3.2938,3.2957,3.2982,3.3004,3.306,3.3093,3.3108,3.3134,3.3177,3.3214,3.322,3.3235,3.3247,3.3252,3.3188,3.318,3.3172,3.316,3.3251,3.3251,3.3316,3.3317,3.3318]},{"header":{"parameterUnit":"m.s-1","parameterCategory":1,"la1":30.2991,"la2":30.254,"lo1":-89.0895,"lo2":-89.0444,"dy":0.0017,"dx":0.0017,"nx":28,"ny":28,"refTime":"2025-04-08T21:00:00:Z","depth":0,"parameterNumber":3,"parameterNumberName":"V-component_of_WINDS"},"data":[0,0,0,0,0,0,0,0,0,0,0,0,0,0,0,0,0,0,0,0,0,0,0,0,0,0,0,0,0,0,0,0,0,0,0,0,0,0,0,0,0,0,0,0,0,0,0,0,0,0,0,0,0,0,0,0,0,0,2.2215,2.2215,0,2.2177,2.2177,2.2177,2.2161,2.2161,2.2161,2.2162,2.212,2.2119,2.2118,0,0,0,0,0,0,0,0,0,0,0,0,0,2.2269,2.2268,2.2215,2.2215,2.2214,2.2178,2.2177,2.2176,2.2161,2.2161,2.2162,2.2162,2.212,2.2119,2.2118,0,0,0,0,0,0,0,0,0,0,0,0,0,2.224,2.2268,2.2215,2.2202,2.2201,2.2178,2.2177,2.2176,2.2161,2.2161,2.2162,2.2162,2.2121,2.2119,2.2117,2.2103,0,0,2.2112,2.2111,0,0,0,0,0,0,0,0,2.2242,2.2238,2.2205,2.2203,2.2201,2.2174,2.2181,2.2152,2.2161,2.2176,2.2162,2.2162,2.2138,2.2135,2.2127,2.2101,2.21,2.2112,2.2111,2.211,2.2109,0,0,0,0,0,0,0,2.2244,2.224,2.22,2.2204,2.2202,2.2197,2.2193,2.2175,2.2156,2.2175,2.2174,2.217,2.2137,2.2129,2.2126,2.2099,2.2112,2.211,2.2109,2.2108,2.2057,2.2056,0,0,0,0,0,0,2.2249,2.2241,2.2201,2.2199,2.2222,2.2196,2.2191,2.2183,2.2157,2.2153,2.2169,2.2169,2.2132,2.2128,2.2124,2.2104,2.211,2.2108,2.2107,2.2057,2.2057,2.2056,0,0,0,0,0,0,2.225,2.2245,2.2203,2.222,2.2214,2.2195,2.2185,2.2182,2.2174,2.2153,2.2149,2.2165,2.2132,2.2127,2.2108,2.2103,2.2107,2.2106,2.2057,2.2057,2.2057,2.2066,0,0,0,0,0,0,2.2251,2.2246,2.2241,2.222,2.2213,2.2189,2.2185,2.2181,2.2171,2.217,2.2148,2.2144,2.2132,2.2111,2.2106,2.2101,2.2104,2.2058,2.2057,2.2057,2.2066,2.2066,2.2066,0,0,0,0,0,2.2253,2.2246,2.2241,2.2237,2.2208,2.2189,2.2185,2.2172,2.2171,2.2166,2.2151,2.2145,2.2104,2.2109,2.2104,2.2097,2.2058,2.2057,2.2057,2.2066,2.2066,2.2066,0,0,0,0,0,0,2.2267,2.2243,2.2238,2.2223,2.2208,2.2186,2.2179,2.2172,2.2156,2.2156,2.2139,2.2134,2.2116,2.2105,2.2111,2.2081,2.208,2.2079,2.2089,2.2089,2.2089,2.2091,2.2103,0,0,0,0,0,2.2268,2.2256,2.2235,2.2224,2.2216,2.2199,2.219,2.2181,2.2165,2.2158,2.2143,2.2126,2.2109,2.2098,2.2082,2.2064,2.2057,2.2057,2.2057,2.2057,2.2055,2.2042,2.2041,2.2054,2.2054,2.2054,0,0,2.227,2.2255,2.2249,2.2226,2.2213,2.2199,2.2194,2.218,2.2168,2.2156,2.2137,2.2125,2.2104,2.2085,2.2076,2.2075,2.205,2.2056,2.2056,2.2054,2.2041,2.204,2.2039,2.2054,2.2054,2.2054,0,0,2.2267,2.2256,2.2244,2.2231,2.2212,2.22,2.2197,2.2176,2.2168,2.2149,2.2138,2.2123,2.2096,2.2081,2.207,2.2058,2.2051,2.2053,2.2053,2.204,2.2039,2.2038,2.2032,2.203,2.2052,2.2052,2.2052,0,2.2272,2.2252,2.2239,2.2225,2.2214,2.2202,2.2189,2.2176,2.2153,2.2144,2.2144,2.2107,2.2093,2.2069,2.2066,2.2058,2.2052,2.2056,2.204,2.2039,2.2038,2.2032,2.203,2.2052,2.2052,2.2052,2.2052,0,2.2258,2.2244,2.2237,2.2214,2.2202,2.2189,2.2172,2.2161,2.2153,2.214,2.2119,2.2101,2.208,2.2074,2.2065,2.2048,2.2047,2.2044,2.2043,2.2037,2.2031,2.2029,2.2053,2.2053,2.2053,2.2053,0,0,2.2263,2.2233,2.223,2.2219,2.2196,2.2184,2.2168,2.2148,2.2138,2.2121,2.2107,2.2082,2.2078,2.2065,2.2055,2.2044,2.2033,2.2041,2.204,2.2039,2.201,2.2012,2.2009,2.2028,2.2027,2.2027,2.2011,0,2.2256,2.223,2.2216,2.2195,2.218,2.2167,2.2153,2.2137,2.2124,2.2108,2.2094,2.2076,2.2073,2.2065,2.2053,2.2037,2.2027,2.2038,2.2012,2.2011,2.2016,2.2007,2.2009,2.1995,2.2008,2.2008,2.2008,0,2.2245,2.2228,2.2206,2.2182,2.2175,2.2164,2.2142,2.2128,2.2108,2.2099,2.2084,2.2073,2.2054,2.2054,2.2026,2.2034,2.2022,2.2012,2.2011,2.2008,2.2009,2.2001,2.199,2.1988,2.2004,2.2004,2.2005,0,2.2249,2.2221,2.2203,2.2194,2.2167,2.2158,2.2146,2.2126,2.2114,2.2095,2.2086,2.2065,2.2053,2.2035,2.2018,2.202,2.199,2.199,2.1981,2.1981,2.1975,2.1975,2.1961,2.1969,2.1969,2.1969,2.1969,0,2.2242,2.2228,2.2205,2.2194,2.2177,2.216,2.2143,2.213,2.2112,2.2096,2.2083,2.2068,2.2047,2.2029,2.2015,2.1992,2.1987,2.1978,2.1974,2.1979,2.1979,2.197,2.197,2.1969,2.1969,2.1969,2.1969,0,2.2244,2.2228,2.2208,2.2183,2.2176,2.2165,2.2142,2.213,2.2116,2.2096,2.209,2.2068,2.2045,2.2026,2.1997,2.1987,2.1963,2.1959,2.197,2.1968,2.1959,2.196,2.1937,2.1932,2.1945,2.1945,2.1945,0,2.2241,2.223,2.2204,2.2193,2.2181,2.2164,2.2151,2.2133,2.212,2.2094,2.2084,2.2061,2.2041,2.2005,2.1985,2.1962,2.1956,2.195,2.1953,2.1956,2.1954,2.1954,2.1952,2.195,2.195,2.1949,2.1949,0,2.2236,2.2228,2.2211,2.219,2.2175,2.2157,2.2139,2.2131,2.2109,2.2094,2.2072,2.2056,2.2025,2.2002,2.1975,2.1961,2.195,2.1949,2.1945,2.1949,2.1955,2.1949,2.1968,2.1949,2.1949,2.1949,2.1949,2.1949,2.2234,2.2223,2.2202,2.2182,2.2167,2.2149,2.2136,2.212,2.2101,2.2075,2.2065,2.2041,2.2017,2.1981,2.1966,2.1945,2.1944,2.1939,2.1938,2.1936,2.1936,2.1959,2.1941,2.1941,2.1941,2.1941,2.1941,0,2.2227,2.2212,2.2194,2.2169,2.2153,2.2146,2.2125,2.2111,2.2091,2.207,2.2051,2.2023,2.1999,2.1976,2.195,2.1938,2.1932,2.1931,2.1932,2.1928,2.194,2.1945,2.1936,2.1936,2.1936,2.1936,2.1936,2.1936,2.2221,2.2201,2.219,2.2161,2.2146,2.2123,2.2111,2.2094,2.2077,2.2047,2.2027,2.2013,2.199,2.1962,2.1939,2.1932,2.1923,2.1923,2.1915,2.1927,2.1927,2.1928,2.1932,2.1921,2.1921,2.1904,2.1904,2.1904]}]]